Flight Information

DEPARTURE
SPOKANE, WA
Elevation:
2385
Runways:
8/26 - 8199x150 - ASPH-G
3/21 - 11002x150 - ASPH-CONC-E
ATIS:
124.325
Clearance Delivery:
127.55
Ground:
121.9
Tower:
SPOKANE TOWER 118.3
DESTINATION
,
Elevation:
TPA:
1000 (est.)


6489.1 NM69° True-19° Var49° HDG

Flight Plan:
(click to file on line)

1. Type
2. Aircraft Identification
3. Aircraft Type / Special Equipment
4. True Airspeed
kts
5. Departure Airport
(ICAO code)
6. Arriving Airport
(ICAO code)
7. Cruising Altitude
ft
8. Alternate Airport
(ICAO code)
9. Route of Flight
10. Remarks


00:00:00 Departure ATIS: Destination ATIS:

Clearance Limit:
Route:
Altitude: Expect in minutes
Frequency:
Transponder: (7500 Hijack / 7600 Lost Comms / 7700 Emergency)


KGEG 190153Z 35004KT 10SM BKN070 M01/M03 A3046 RMK AO2 SLP342 T10061028
Time: 2021-01-19T01:53:00Z
1611022970
Winds: 350 @ 4 kts
Visibility: 10.0 sm
Clouds (AGL): BKN 7000
Temperature: -0.6 C
Dew Point: -2.8 C
Pressure: 30.46063 in Hgbr


Notes:

Data extracted from FAA Digital Chart Supplement. Effective: 0901Z Thursday, Dec 31, 2020 to 0901Z Thursday, Jan 28, 2021
Current ATIS data is provided courtisy of PilotEdge.